Wind_Speed
40 41 42 42 43 44 46 46 47 46 47 47 47 46 47 47 46 47 46 45 45 45 44 44 44 43 42 42 41 41 40 39 39 39 39 39 39 38 38 37 36 37 36
40 41 42 43 43 45 46 46 47 47 48 48 48 49 48 48 47 47 47 47 47 46 45 45 46 45 44 44 43 43 42 42 41 41 40 40 40 40 40 39 39 38 38
40 41 43 44 44 44 46 47 48 48 49 50 51 50 50 49 48 49 49 49 49 48 48 45 46 47 47 47 46 45 45 44 43 43 42 42 42 43 42 42 41 41 40
40 41 43 44 45 46 46 47 48 49 49 50 52 52 51 51 50 50 51 51 51 51 50 49 48 48 49 49 48 48 48 47 46 45 44 44 44 44 44 43 43 43 42
40 41 42 43 45 46 47 48 49 49 50 51 51 52 52 53 52 52 52 53 53 53 53 52 52 51 51 50 49 50 49 49 48 47 47 47 46 46 45 45 44 44 44
40 40 41 42 44 46 47 48 49 50 50 51 52 52 53 53 54 54 54 54 54 54 54 54 54 53 52 51 51 51 50 50 49 49 49 49 48 47 47 46 46 45 45
40 40 41 42 43 44 46 48 49 49 50 51 52 53 53 54 55 55 56 56 56 56 56 56 55 54 54 53 54 52 52 51 51 51 51 50 51 50 49 49 48 47 46
40 41 41 42 43 44 45 46 47 48 49 50 51 52 53 54 54 55 56 56 56 58 57 57 56 55 55 55 55 54 53 53 52 52 52 52 52 51 50 49 49 48 48
40 41 42 42 43 43 44 45 46 47 48 49 51 52 53 53 54 54 55 56 56 57 57 57 57 56 56 55 55 55 54 53 52 52 52 53 52 52 51 50 50 50 50
40 40 41 42 43 44 44 45 46 47 48 48 50 52 53 54 54 53 54 55 56 57 56 57 57 57 57 56 55 55 55 56 54 53 53 52 53 53 54 53 52 52 53
38 39 40 41 42 43 44 45 46 47 48 49 49 51 51 52 53 53 54 54 54 56 56 56 57 56 57 57 57 56 55 55 55 55 54 54 53 53 54 55 55 55 55
37 38 39 40 41 42 44 45 45 46 48 49 49 50 50 51 51 53 54 55 55 55 56 56 56 56 57 57 57 58 57 56 56 56 56 55 54 54 55 55 56 57 57
37 37 37 38 39 41 42 44 45 45 47 48 48 49 49 49 50 51 52 54 55 55 55 56 56 56 56 56 57 57 58 57 57 57 57 57 57 57 56 56 56 57 57
38 38 38 39 39 40 41 42 43 45 46 47 47 48 48 48 48 49 51 52 54 55 55 56 55 55 56 56 56 57 57 56 56 57 57 57 58 58 57 57 57 57 57
38 38 39 38 39 40 41 42 42 43 44 45 45 46 48 48 48 48 49 51 52 53 53 54 54 54 55 54 55 55 55 55 56 56 56 57 57 57 56 56 57 57 57
38 38 39 39 40 40 41 41 42 42 43 44 45 46 47 48 49 48 49 50 50 51 52 53 54 54 55 55 55 54 54 55 55 55 55 56 56 55 55 56 57 57 58
37 38 39 40 40 41 41 41 42 42 43 44 44 45 46 47 48 48 48 49 49 50 51 51 52 53 54 54 55 55 55 55 54 54 54 54 53 54 55 55 56 56 56
36 36 37 38 39 40 40 41 41 42 42 43 43 44 46 47 47 47 47 48 48 49 49 50 51 52 53 54 54 54 55 55 55 55 55 55 54 54 54 55 55 54 55
35 36 37 38 38 39 40 41 41 42 42 43 43 43 44 45 46 46 46 47 48 49 49 49 50 51 52 52 53 53 54 55 55 56 55 55 55 55 55 55 54 54 55
36 36 37 37 38 38 39 40 40 41 42 43 43 43 43 43 44 45 45 46 46 47 48 49 50 51 51 52 52 53 53 54 55 55 55 55 55 55 55 55 54 54 54
36 36 37 37 37 37 38 39 40 40 41 41 42 42 43 43 43 44 44 45 46 46 47 48 49 50 50 51 51 52 52 52 53 54 54 53 54 55 56 56 55 55 54
36 36 36 36 36 36 36 37 38 39 39 39 40 40 41 42 43 43 44 44 45 46 46 47 48 49 49 50 51 52 52 53 53 53 53 53 53 53 54 55 55 55 55
35 36 36 36 35 36 36 36 36 36 37 37 38 38 39 41 42 42 42 43 45 46 46 46 46 48 48 49 50 51 52 53 53 53 53 53 53 52 52 52 54 55 54
34 35 35 35 35 35 35 35 36 36 35 35 36 36 38 39 40 42 42 43 43 45 45 44 44 45 47 48 49 49 50 51 52 53 53 52 51 51 52 52 52 53 53
33 33 33 33 33 34 34 35 35 35 34 34 34 35 35 37 39 40 41 42 43 44 44 44 44 44 45 47 48 48 49 50 51 51 51 51 51 51 51 51 52 52 52
31 32 33 33 33 33 33 33 34 33 33 33 33 33 34 35 37 38 40 41 43 44 44 44 44 44 44 45 46 46 47 48 49 49 50 50 49 49 49 49 50 51 51
Wind_Direction
256 254 253 252 251 250 249 249 249 248 247 246 246 248 247 247 246 247 248 249 249 248 248 249 248 247 246 246 247 247 247 248 249 249 249 249 250 251 252 254 255 255 256
255 255 254 253 252 251 250 249 249 249 248 247 247 247 247 247 247 247 248 249 249 249 249 250 248 247 246 247 247 247 247 248 249 249 250 250 250 252 252 253 254 255 256
256 255 254 254 253 252 250 249 248 248 249 248 247 247 246 247 248 248 248 249 249 249 248 248 249 248 248 248 248 248 248 249 250 250 250 251 252 252 252 254 255 256 257
258 257 255 254 254 253 252 251 249 248 249 248 247 247 247 248 248 249 250 250 250 249 249 250 250 250 250 249 248 249 249 249 250 250 251 252 253 253 253 253 255 257 257
260 259 258 256 255 253 252 251 251 249 248 248 248 249 248 248 248 249 249 249 249 249 249 250 251 249 249 249 249 249 249 248 250 252 253 253 253 254 255 255 256 257 257
261 260 260 258 256 254 253 252 251 250 249 248 248 249 249 249 249 249 249 249 249 249 249 249 250 250 250 249 249 248 248 248 249 251 252 254 254 254 254 255 257 257 257
262 261 260 259 258 256 255 253 252 251 250 249 249 249 250 250 250 250 249 249 249 249 249 249 249 248 250 250 249 249 249 247 248 250 251 252 253 253 254 255 256 256 256
263 262 261 260 259 258 257 255 253 252 252 251 250 250 250 251 251 251 250 250 250 250 249 250 249 249 249 249 249 249 249 248 249 250 250 251 251 252 253 254 254 255 256
264 263 263 261 260 260 258 256 254 253 252 252 252 250 251 251 252 251 251 251 250 250 250 250 250 249 249 249 248 249 248 247 248 249 249 249 250 251 252 254 254 255 256
266 264 264 263 262 261 259 257 256 254 252 252 252 252 252 252 252 252 251 251 250 250 250 250 250 249 249 249 249 248 248 248 248 248 248 250 251 252 253 253 254 255 256
267 265 264 263 262 261 259 258 257 255 253 253 253 252 253 253 252 252 252 251 250 250 250 251 250 249 249 249 248 248 248 248 248 248 250 250 250 252 253 254 255 255 256
268 267 266 264 262 261 260 259 258 257 255 254 254 253 253 253 252 251 251 251 251 250 249 249 249 249 249 249 248 248 249 249 249 250 250 249 250 251 253 254 255 256 257
268 268 267 266 264 263 261 260 259 258 257 256 256 254 253 253 253 252 251 251 250 249 249 249 249 248 248 248 248 248 249 249 249 250 250 250 252 252 253 254 255 256 257
268 268 268 267 265 264 263 261 261 259 258 257 257 256 255 254 254 253 252 251 250 249 249 248 248 248 248 247 248 248 248 248 249 250 251 252 253 253 254 255 256 257 257
269 268 268 268 267 265 264 263 262 260 259 258 258 257 255 254 254 253 252 252 251 250 249 248 247 248 247 247 247 247 247 248 248 250 251 252 253 254 255 256 256 256 257
270 270 269 268 268 266 265 264 263 262 261 259 258 258 257 255 254 254 253 252 251 250 249 249 248 248 247 247 247 247 248 248 248 249 250 252 253 254 256 257 258 258 259
272 271 270 269 269 268 267 264 263 263 262 261 260 259 258 257 256 254 253 252 251 250 249 250 249 248 247 247 247 247 247 248 249 250 251 253 255 256 257 258 259 259 260
275 274 272 271 270 269 267 266 264 263 263 262 261 260 259 259 258 255 254 253 251 251 251 250 249 249 248 248 248 248 249 249 250 251 252 254 255 257 257 258 259 260 261
277 276 275 273 271 270 268 267 265 264 264 263 262 261 261 259 258 255 254 253 253 253 252 251 250 249 249 249 248 249 250 250 250 251 252 254 255 256 257 258 259 260 260
278 278 277 275 273 271 269 268 267 266 265 264 262 261 261 259 257 255 254 253 254 255 254 253 251 250 249 249 250 251 251 251 250 252 253 254 255 255 256 257 259 260 260
279 277 277 276 275 273 270 269 269 269 267 265 263 262 260 258 256 255 254 254 255 255 254 253 251 250 249 251 252 252 252 252 252 252 253 255 255 255 256 258 259 260 261
278 277 277 276 275 275 273 271 271 271 270 267 264 262 259 257 256 256 256 255 255 254 253 253 251 251 251 253 254 254 253 253 253 253 254 256 256 257 258 259 260 260 261
278 278 278 276 276 275 275 274 272 272 271 268 266 263 260 259 256 256 257 257 255 254 254 253 253 253 252 253 253 254 254 255 255 255 256 257 257 258 259 259 259 260 261
280 279 278 277 276 276 276 275 273 272 272 270 269 266 262 260 258 257 257 258 257 256 255 254 254 254 254 253 253 253 253 254 255 255 256 257 257 257 258 259 260 260 261
283 281 280 279 278 277 276 275 274 273 272 271 270 268 265 262 260 259 258 258 259 258 257 256 256 256 254 254 253 253 253 253 254 255 256 257 257 258 258 259 260 260 261
286 284 282 280 278 277 276 276 275 274 272 271 270 269 266 264 262 260 260 260 260 258 257 256 256 255 255 254 254 255 254 254 254 255 255 257 258 258 258 258 259 260 260
Height
5663 5664 5666 5668 5671 5674 5677 5680 5684 5687 5690 5694 5697 5701 5704 5707 5711 5714 5717 5720 5723 5726 5729 5732 5735 5738 5741 5744 5747 5750 5753 5757 5760 5763 5766 5769 5772 5775 5777 5779 5782 5784 5786
5652 5654 5655 5657 5660 5663 5666 5669 5672 5676 5679 5682 5686 5689 5693 5696 5699 5703 5706 5709 5712 5715 5718 5722 5724 5727 5730 5733 5737 5740 5743 5747 5750 5754 5756 5759 5763 5765 5768 5770 5773 5775 5777
5641 5643 5645 5646 5649 5651 5654 5657 5660 5664 5667 5670 5673 5677 5681 5685 5688 5691 5695 5698 5701 5703 5707 5710 5713 5716 5719 5722 5725 5729 5733 5736 5740 5743 5747 5750 5753 5756 5758 5760 5763 5765 5768
5630 5632 5633 5635 5637 5639 5642 5645 5648 5651 5654 5657 5661 5665 5669 5673 5677 5680 5682 5685 5688 5691 5694 5698 5701 5704 5707 5710 5714 5717 5721 5725 5728 5732 5735 5739 5742 5745 5748 5750 5753 5755 5757
5620 5621 5622 5623 5625 5627 5630 5633 5636 5639 5642 5645 5649 5653 5656 5660 5664 5667 5669 5672 5675 5678 5682 5685 5688 5691 5695 5698 5701 5705 5709 5713 5717 5720 5723 5727 5730 5733 5737 5740 5742 5744 5747
5609 5609 5610 5611 5613 5615 5617 5620 5623 5626 5629 5633 5636 5639 5643 5647 5650 5653 5656 5659 5662 5665 5668 5671 5675 5678 5681 5685 5689 5692 5696 5700 5705 5708 5712 5715 5718 5722 5725 5728 5731 5733 5736
5598 5599 5599 5600 5602 5603 5605 5608 5610 5613 5616 5619 5623 5626 5629 5633 5636 5639 5642 5645 5648 5652 5655 5658 5661 5664 5668 5672 5675 5679 5683 5687 5692 5696 5699 5703 5706 5709 5712 5716 5719 5721 5724
5587 5588 5588 5589 5590 5592 5593 5595 5598 5601 5603 5606 5610 5613 5616 5619 5622 5625 5628 5631 5634 5637 5640 5644 5647 5651 5654 5658 5661 5665 5669 5674 5678 5683 5687 5690 5693 5696 5700 5703 5706 5709 5712
5575 5576 5577 5578 5578 5579 5581 5583 5585 5588 5591 5594 5596 5599 5602 5605 5608 5611 5613 5616 5620 5623 5626 5629 5633 5637 5640 5643 5647 5652 5656 5660 5665 5669 5673 5676 5680 5683 5686 5689 5692 5696 5698
5564 5564 5565 5566 5567 5567 5569 5571 5573 5575 5578 5580 5583 5586 5588 5591 5593 5596 5599 5602 5605 5608 5612 5615 5619 5623 5626 5630 5634 5638 5642 5646 5651 5655 5659 5662 5666 5669 5672 5675 5678 5681 5685
5553 5553 5553 5554 5555 5556 5557 5559 5560 5562 5564 5567 5569 5571 5574 5577 5579 5582 5585 5588 5591 5594 5598 5601 5604 5608 5612 5616 5620 5624 5628 5632 5637 5641 5645 5649 5652 5655 5658 5661 5664 5667 5670
5542 5542 5542 5542 5543 5544 5545 5546 5547 5549 5551 5553 5555 5557 5560 5562 5564 5567 5570 5573 5576 5580 5583 5587 5590 5594 5598 5602 5606 5610 5615 5619 5623 5627 5631 5635 5638 5641 5644 5647 5650 5652 5655
5531 5531 5531 5531 5532 5532 5533 5534 5535 5537 5538 5540 5542 5543 5545 5548 5550 5553 5556 5559 5562 5565 5569 5572 5576 5580 5584 5588 5592 5596 5600 5605 5609 5613 5617 5620 5623 5627 5630 5633 5635 5637 5640
5520 5520 5520 5520 5521 5521 5522 5522 5523 5524 5525 5527 5528 5530 5532 5534 5537 5539 5541 5544 5547 5550 5554 5558 5562 5566 5570 5574 5578 5582 5586 5590 5595 5599 5602 5606 5609 5612 5615 5618 5620 5622 5624
5509 5509 5509 5509 5509 5509 5510 5510 5511 5512 5513 5514 5515 5517 5519 5521 5523 5525 5528 5530 5533 5536 5540 5543 5547 5551 5555 5559 5564 5568 5571 5576 5580 5584 5587 5591 5594 5597 5600 5603 5605 5607 5609
5498 5498 5498 5498 5498 5498 5498 5498 5499 5499 5500 5501 5503 5504 5506 5508 5510 5512 5514 5516 5519 5522 5525 5529 5533 5537 5541 5545 5549 5553 5557 5561 5566 5569 5573 5576 5579 5582 5584 5587 5590 5592 5594
5488 5487 5487 5486 5486 5486 5486 5486 5487 5487 5488 5489 5490 5491 5493 5494 5496 5498 5501 5503 5506 5509 5512 5515 5519 5523 5527 5531 5535 5539 5543 5547 5551 5555 5558 5561 5564 5567 5570 5572 5574 5576 5578
5477 5476 5475 5475 5475 5474 5474 5474 5475 5475 5476 5476 5477 5478 5480 5481 5483 5485 5487 5490 5493 5496 5499 5502 5506 5509 5513 5517 5520 5524 5529 5532 5536 5540 5543 5546 5549 5552 5555 5557 5559 5561 5563
5467 5465 5464 5464 5463 5463 5462 5463 5463 5463 5463 5464 5464 5465 5466 5467 5469 5472 5475 5477 5480 5483 5486 5489 5493 5496 5500 5503 5506 5509 5513 5517 5521 5525 5528 5531 5535 5538 5540 5542 5545 5546 5548
5456 5455 5453 5452 5452 5451 5451 5451 5451 5451 5451 5451 5452 5452 5453 5454 5456 5459 5462 5464 5467 5469 5472 5476 5479 5482 5486 5489 5492 5495 5499 5503 5507 5511 5514 5517 5520 5522 5524 5526 5529 5531 5533
5445 5443 5442 5441 5440 5440 5439 5439 5439 5438 5438 5438 5439 5440 5441 5442 5444 5446 5449 5451 5454 5457 5460 5463 5466 5469 5473 5476 5478 5481 5484 5488 5492 5496 5499 5502 5504 5506 5508 5511 5513 5515 5517
5434 5432 5431 5430 5429 5428 5427 5427 5427 5426 5426 5426 5426 5427 5428 5430 5432 5434 5437 5439 5441 5444 5447 5449 5452 5455 5459 5461 5464 5467 5470 5474 5477 5481 5484 5486 5488 5490 5493 5495 5497 5499 5501
5423 5422 5420 5419 5419 5417 5416 5416 5415 5415 5414 5414 5414 5415 5416 5417 5419 5421 5424 5426 5429 5432 5434 5437 5439 5442 5445 5448 5450 5453 5456 5459 5462 5466 5469 5471 5473 5475 5477 5479 5481 5483 5485
5413 5411 5410 5409 5408 5406 5405 5404 5404 5404 5403 5403 5403 5403 5404 5406 5407 5410 5412 5414 5416 5419 5421 5424 5426 5429 5432 5434 5437 5439 5443 5445 5448 5451 5453 5456 5458 5460 5462 5464 5466 5468 5470
5403 5401 5400 5399 5397 5396 5395 5394 5393 5393 5392 5392 5392 5392 5393 5394 5395 5397 5399 5401 5403 5405 5408 5411 5413 5416 5419 5421 5424 5426 5429 5432 5434 5436 5439 5441 5444 5446 5447 5449 5451 5453 5454
5393 5392 5390 5388 5387 5386 5384 5383 5383 5382 5382 5382 5382 5382 5382 5383 5384 5385 5387 5388 5390 5393 5395 5397 5400 5403 5405 5408 5410 5412 5415 5417 5419 5422 5425 5427 5429 5431 5433 5435 5436 5438 5439